Location: Slidell
(30.2789°N, 89.7378°W)
Time: 18:29:01
(UTC-06:00)

Cosmos 2360 Rocket - Visible Passes

Search period start: 31 January 2015 00:00
Search period end: 10 February 2015 00:00
Orbit: 836 x 844 km, 71.0° (Epoch: 30 January)

Date Brightness Start Highest point End Pass type
(mag) Time Alt. Az. Time Alt. Az. Time Alt. Az.
31 Jan 3.9 19:36:36 10° S 19:38:10 19° SSE 19:38:10 19° SSE visible
01 Feb 2.6 06:19:44 10° NNW 06:25:20 70° ENE 06:30:57 10° SSE visible
01 Feb 3.2 19:21:06 10° S 19:24:17 30° SSE 19:24:17 30° SSE visible
01 Feb 5.1 21:06:05 10° WSW 21:06:10 10° WSW 21:06:10 10° WSW visible
02 Feb 2.7 06:04:09 10° NNW 06:09:44 65° ENE 06:15:19 10° SSE visible
02 Feb 2.7 19:05:36 10° S 19:10:29 36° ESE 19:10:29 36° ESE visible
02 Feb 4.6 20:50:18 10° WSW 20:52:21 18° W 20:52:21 18° W visible
03 Feb 2.8 05:48:34 10° NNW 05:54:07 60° ENE 05:59:40 10° SSE visible
03 Feb 2.8 18:50:07 10° SSE 18:55:04 34° ESE 18:56:44 29° ENE visible
03 Feb 4.1 20:34:31 10° WSW 20:38:37 25° WNW 20:38:37 25° WNW visible
04 Feb 2.9 05:32:59 10° N 05:38:30 55° ENE 05:44:01 10° SE visible
04 Feb 2.9 18:34:38 10° SSE 18:39:28 31° ESE 18:43:00 17° NE visible
04 Feb 4.0 20:18:45 10° WSW 20:23:30 27° WNW 20:24:54 24° NW visible
05 Feb 3.0 05:17:25 10° N 05:22:53 51° ENE 05:28:22 10° SE visible
05 Feb 3.0 18:19:10 10° SSE 18:23:53 29° ESE 18:28:43 10° NE visible
05 Feb 3.9 20:03:00 10° WSW 20:07:51 28° WNW 20:11:08 17° NNW visible
06 Feb 3.1 05:01:51 10° N 05:07:16 48° ENE 05:12:42 10° SE visible
06 Feb 3.1 18:03:42 10° SSE 18:08:18 27° ESE 18:13:00 10° NE visible
06 Feb 3.8 19:47:15 10° SW 19:52:13 30° WNW 19:57:06 10° N visible
07 Feb 3.2 04:46:18 10° N 04:51:38 44° ENE 04:57:01 10° SE visible
07 Feb 3.8 19:31:32 10° SW 19:36:34 33° WNW 19:41:34 10° N visible
08 Feb 3.3 04:31:51 16° N 04:36:01 41° ENE 04:41:19 10° SE visible
08 Feb 3.5 06:15:43 10° NW 06:19:45 20° WSW 06:23:34 10° SW visible
08 Feb 3.7 19:15:49 10° SW 19:20:56 35° WNW 19:26:01 10° N visible
09 Feb 3.4 04:17:53 25° NNE 04:20:23 38° ENE 04:25:38 10° SE visible
09 Feb 3.4 05:59:56 10° NW 06:04:10 21° WSW 06:08:12 10° SSW visible
09 Feb 3.6 19:00:06 10° SW 19:05:18 38° WNW 19:10:29 10° N visible
